Showing default

KANOPUS-V 6, 43877

Orbit data source: Space-Track

KANOPUS-V 6, 43877 is a payload satellite owned by VNIIEM (CIS) in SSO that was launched on Thu, 27 Dec 2018 UTC via a SOYUZ-2-1A launch vehicle from the Vostochny Cosmodrome (VOSTO). Payloads include a variety of satellites, spacecraft, and rockets equipped with specific instruments for various scientific and technological missions. These include communications satellites like Starlink; space stations such as the ISS; scientific satellites like the Hubble; Earth observation satellites from companies like Planet Labs, Umbra, and HawkEye 360; GPS; miniature CubeSats for education and research; and military/defense satellites.

Loading next visibility...
KANOPUS-V 6 details
Identifier
43877, 2018-111B
Orbit
SSO
Last TLE update8 hours ago
Origin
Flag of CISVNIIEM (CIS)
ManufacturerVNIIEM
MissionOperational Civil Imaging
Bus & MotorKANOPUS, Unknown motor
Mass473 kg wet, 473 kg dry
Launch date (UTC)
2018-12-27 (6 years ago)
Launch vehicle
SOYUZ-2-1A
Launch site
Vostochny Cosmodrome (VOSTO)
Object type
Payload
Rocket body
Debris
Shape & HBRBox + 2 Pan, 6 m
Radar Cross Section1.665 m², Large (>1 m²)

Expand to show TLE details & history

TLE from 8 hours ago
0 KANOPUS-V 6
1 43877U 18111B   24361.44857601  .00009500  00000-0  33913-3 0  9998
2 43877  97.3894 267.8052 0002214  79.7192 280.4298 15.29073014331029
Epoch: 2024-12-26T10:45Z
Definitive object data (Epoch: 2024-12-26T10:45:56.967Z)
Latitude0.00003°
Longitude10.89001°
Altitude481.411 km
Speed7.625 km/s
True Right ascension17h 51m 13s
True Declination0° 00' 00"
Sunlit
Object was in daylight at TLE epoch
Visualization TLE readout
Latitude-50.42162°
Longitude20.18193°
Altitude499.151 km
Speed7.613 km/s
Apparent Right ascension02h 10m 20s
Apparent Declination-83° 56' 56"
Sunlit
Object is in daylight
Visualization observer readout
Local Sidereal Time17:46:18
Azimuth173.273° S
Elevation-43.285°
Doppler factor1
Orbital elements
Apogee altitude477.053 km
Perigee altitude474.018 km
Semi-major axis6,853.672 km
Eccentricity0.0002214
Inclination97.3894°
RAAN267.8052°
Arg. of periapsis79.7192°
True anomaly280.40485°
Mean anomaly280.4298°
Eccentric anomaly280.41732°
Mean motion3.82524 °/min
BSTAR0.00033913
Orbital period94.11 mins
Loading maneuver chart data...
Loading historical data...
Loading historical data...
Loading historical data...
Loading historical data...
Loading historical data...
Loading historical data...
Loading historical data...

KANOPUS-V 6 Visibility forecast

Observer location: undefined°, undefined

Span
Click to sort rows by Start time (UTC) header in descending order
Start Az.
Max El. time (UTC)
Max El. Az.
Max El.
End time (UTC)
End Az.
5 mins2024-12-26 18:44:48.547Z213.441° SW2024-12-26 18:46:48.547Z250.696° W20.898°2024-12-26 18:49:48.547Z314.989° NW
4 mins2024-12-27 06:11:48.547Z53.985° ENE2024-12-27 06:13:48.547Z101.276° ESE21.908°2024-12-27 06:15:48.547Z143.481° SSE
5 mins2024-12-27 18:18:48.547Z189.148° SSW2024-12-27 18:20:48.547Z245.858° WSW38.088°2024-12-27 18:23:48.547Z335.128° NNW
|